Погода в Голубом

Россия / Амурская область     51°47′04″N   127°58′07″E
темп.,
°C
ветер,
м/с
пор.,
м/с
влажн.,
%
обл.,
%
осадки,
мм/ч
давл.,
гПа
погр.,
м
19 мая, ср
ср1900:00+6св224310 0.0 100432
03:00+7ссв3745100 0.0 1005251
06:00+5в3559100 0.1 1007280
09:00+9в335359 0.3 1007834
12:00+14ююв12415 0.0 10061626
15:00+16ю233386 0.0 10042451
18:00+15юв5637100 0.0 10031846
21:00+12юв61345100 0.0 1001634
20 мая, чт
чт2000:00+9вюв51266100 0.9 999623
03:00+7вюв51284100 3.7 995479
06:00+8зсз5128528 0.0 998754
09:00+10сз71070100 0.0 10021085
12:00+13ссз584887 0.0 10041065
15:00+16сз3533100 0.0 10052101
18:00+16ююв3434100 0.0 10051526
21:00+11вюв3955100 0.0 1007259
21 мая, пт
пт2100:00+9всв226279 0.0 100824
03:00+9ссв2363100 0.0 1008103
06:00+8ссв598188 0.0 1010492
09:00+8ссв5779100 0.0 1011615
12:00+9св4573100 0.0 1011582
15:00+10всв4771100 0.3 1009659
18:00+12ссв386161 0.2 1010966
21:00+7св511655 0.2 1010412
22 мая, сб
сб2200:00+6всв4117358 0.0 1009306
03:00+6св41079100 0.0 1009270
06:00+7всв41266100 0.1 1007388
09:00+13всв464436 0.1 1004569
12:00+18в464056 0.0 10011063
15:00+23ююв584113 0.0 9971355
18:00+24ююв51146100 0.0 993975
21:00+21зюз81454100 0.2 995826
23 мая, вс
вс2300:00+17ю61377100 0.7 994431
03:00+16ю61692100 3.7 993597
06:00+15ю61393100 1.6 993661
09:00+20ююз577190 2.0 9921126
12:00+13зсз5784100 2.1 994517
15:00+15зсз687372 4.8 9931107
18:00+14зсз477195 0.8 9941096
21:00+10зюз398213 2.3 996236